[[{"header":{"parameterUnit":"m.s-1","parameterCategory":1,"la1":30.2991,"la2":30.254,"lo1":-89.0895,"lo2":-89.0444,"dy":0.0017,"dx":0.0017,"nx":28,"ny":28,"refTime":"2024-07-25T09:00:00:Z","depth":0,"parameterNumber":2,"parameterNumberName":"U-component_of_WINDS"},"data":[0,0,0,0,0,0,0,0,0,0,0,0,0,0,0,0,0,0,0,0,0,0,0,0,0,0,0,0,0,0,0,0,0,0,0,0,0,0,0,0,0,0,0,0,0,0,0,0,0,0,0,0,0,0,0,0,0,0,-0.7819,-0.7818,0,-0.7719,-0.7717,-0.7716,-0.7607,-0.7605,-0.7604,-0.7602,-0.75,-0.7498,-0.7497,0,0,0,0,0,0,0,0,0,0,0,0,0,-0.7918,-0.7917,-0.7819,-0.7818,-0.7817,-0.7719,-0.7717,-0.7716,-0.7607,-0.7605,-0.7603,-0.7602,-0.75,-0.7498,-0.7497,0,0,0,0,0,0,0,0,0,0,0,0,0,-0.7852,-0.7917,-0.782,-0.7751,-0.7743,-0.7719,-0.7717,-0.7716,-0.7608,-0.7605,-0.7603,-0.7601,-0.75,-0.7499,-0.7497,-0.7532,0,0,-0.7491,-0.749,0,0,0,0,0,0,0,0,-0.7856,-0.7849,-0.7762,-0.7755,-0.7747,-0.7673,-0.7714,-0.7654,-0.7608,-0.7659,-0.7602,-0.76,-0.7559,-0.7552,-0.7539,-0.7527,-0.7523,-0.7491,-0.749,-0.7489,-0.7488,0,0,0,0,0,0,0,-0.7861,-0.7853,-0.7779,-0.7761,-0.7752,-0.7725,-0.7713,-0.7703,-0.7624,-0.7655,-0.7646,-0.7636,-0.7555,-0.7541,-0.7535,-0.7521,-0.7491,-0.7489,-0.7488,-0.7487,-0.7535,-0.7538,0,0,0,0,0,0,-0.7876,-0.7857,-0.7783,-0.7776,-0.7797,-0.7725,-0.7712,-0.7699,-0.7623,-0.761,-0.7638,-0.7631,-0.7545,-0.7538,-0.7531,-0.7568,-0.7489,-0.7487,-0.7486,-0.7533,-0.7536,-0.7539,0,0,0,0,0,0,-0.7878,-0.787,-0.7787,-0.7814,-0.7802,-0.7726,-0.7713,-0.7698,-0.7684,-0.7611,-0.7596,-0.7638,-0.7543,-0.7534,-0.7533,-0.7563,-0.7486,-0.7484,-0.753,-0.7534,-0.7537,-0.7643,0,0,0,0,0,0,-0.7882,-0.7872,-0.7884,-0.7816,-0.7801,-0.779,-0.7714,-0.7698,-0.7681,-0.7671,-0.7607,-0.7594,-0.754,-0.7536,-0.7531,-0.7559,-0.7483,-0.7527,-0.7532,-0.7536,-0.7636,-0.765,-0.7661,0,0,0,0,0,-0.7886,-0.7918,-0.7885,-0.7877,-0.7814,-0.7792,-0.7783,-0.7721,-0.7684,-0.7696,-0.7649,-0.7596,-0.7561,-0.7537,-0.753,-0.7558,-0.7525,-0.753,-0.7536,-0.7631,-0.7647,-0.7661,0,0,0,0,0,0,-0.7991,-0.7907,-0.787,-0.7881,-0.7845,-0.7773,-0.7786,-0.774,-0.7713,-0.7704,-0.7628,-0.7614,-0.7623,-0.759,-0.7565,-0.7589,-0.7535,-0.754,-0.761,-0.7625,-0.7637,-0.7645,-0.7481,0,0,0,0,0,-0.8016,-0.8004,-0.7932,-0.7948,-0.7932,-0.7863,-0.785,-0.7805,-0.7764,-0.7748,-0.7701,-0.7664,-0.7644,-0.7633,-0.761,-0.7631,-0.7616,-0.7647,-0.766,-0.767,-0.7675,-0.7685,-0.7698,-0.7556,-0.7556,-0.7556,0,0,-0.8067,-0.8019,-0.8016,-0.7968,-0.7934,-0.7925,-0.785,-0.7843,-0.7835,-0.7747,-0.7743,-0.7708,-0.7661,-0.7672,-0.7674,-0.7645,-0.7711,-0.7677,-0.7686,-0.7685,-0.7692,-0.7705,-0.7718,-0.756,-0.756,-0.7559,0,0,-0.8154,-0.8117,-0.8127,-0.8095,-0.8045,-0.7999,-0.8002,-0.7938,-0.7911,-0.7906,-0.7841,-0.7831,-0.7798,-0.7768,-0.7748,-0.7826,-0.7777,-0.7821,-0.7886,-0.7896,-0.7908,-0.7917,-0.7946,-0.7957,-0.7826,-0.7826,-0.7826,0,-0.8223,-0.8205,-0.8138,-0.8135,-0.8116,-0.8037,-0.8047,-0.8019,-0.7965,-0.7954,-0.7922,-0.7881,-0.7844,-0.7847,-0.7866,-0.7852,-0.7854,-0.7828,-0.7911,-0.792,-0.7928,-0.7955,-0.7965,-0.7832,-0.7831,-0.7831,-0.783,0,-0.8293,-0.8282,-0.8297,-0.8247,-0.8229,-0.8233,-0.8167,-0.8158,-0.8115,-0.8073,-0.807,-0.8022,-0.799,-0.7987,-0.7945,-0.7985,-0.7968,-0.7925,-0.787,-0.7949,-0.7972,-0.7982,-0.784,-0.7838,-0.7836,-0.7835,0,0,-0.8443,-0.8357,-0.8363,-0.834,-0.828,-0.8271,-0.8271,-0.824,-0.8234,-0.82,-0.8199,-0.8174,-0.8134,-0.8112,-0.8066,-0.8075,-0.8141,-0.8031,-0.8028,-0.8054,-0.8184,-0.8217,-0.823,-0.8109,-0.811,-0.8111,-0.8188,0,-0.852,-0.8516,-0.8456,-0.847,-0.8459,-0.8384,-0.8385,-0.8349,-0.831,-0.8296,-0.8253,-0.8237,-0.8185,-0.8171,-0.8177,-0.8132,-0.8167,-0.8126,-0.8108,-0.8108,-0.8122,-0.8242,-0.8276,-0.835,-0.8197,-0.8198,-0.8199,0,-0.8609,-0.8581,-0.8593,-0.8534,-0.8527,-0.8529,-0.8496,-0.8483,-0.8441,-0.8412,-0.8389,-0.8337,-0.8334,-0.8282,-0.8278,-0.8252,-0.8241,-0.8218,-0.8219,-0.8215,-0.8158,-0.8241,-0.8372,-0.8384,-0.8213,-0.8212,-0.8211,0,-0.8718,-0.8683,-0.8686,-0.8669,-0.8599,-0.8603,-0.8574,-0.853,-0.8515,-0.8486,-0.8476,-0.8448,-0.8433,-0.8412,-0.8354,-0.8322,-0.8358,-0.83,-0.8334,-0.8336,-0.8345,-0.8345,-0.8477,-0.8338,-0.8338,-0.8338,-0.8337,0,-0.8811,-0.8822,-0.8734,-0.8737,-0.8747,-0.8678,-0.8691,-0.8655,-0.8616,-0.861,-0.8544,-0.854,-0.8464,-0.8452,-0.8407,-0.8411,-0.8404,-0.8381,-0.8369,-0.8388,-0.8391,-0.8379,-0.8373,-0.834,-0.834,-0.8339,-0.8339,0,-0.8934,-0.8876,-0.8875,-0.881,-0.8794,-0.8805,-0.8749,-0.8749,-0.8706,-0.87,-0.8695,-0.8628,-0.8611,-0.8551,-0.8519,-0.8488,-0.8507,-0.8483,-0.8521,-0.8514,-0.8551,-0.8549,-0.868,-0.8695,-0.8547,-0.8549,-0.855,0,-0.8997,-0.9004,-0.894,-0.8931,-0.8906,-0.8893,-0.8878,-0.8811,-0.8798,-0.8752,-0.8757,-0.8735,-0.8713,-0.8689,-0.8638,-0.8613,-0.8589,-0.8637,-0.8585,-0.8603,-0.859,-0.8591,-0.8592,-0.8648,-0.865,-0.8652,-0.8653,0,-0.9115,-0.9086,-0.9067,-0.9039,-0.9023,-0.8997,-0.8967,-0.8964,-0.889,-0.8879,-0.8861,-0.8844,-0.8811,-0.879,-0.8758,-0.8728,-0.8679,-0.867,-0.8676,-0.8695,-0.8717,-0.8707,-0.8553,-0.8667,-0.8666,-0.8665,-0.8664,-0.8663,-0.921,-0.9213,-0.9169,-0.915,-0.9121,-0.9095,-0.9092,-0.905,-0.9033,-0.9001,-0.8963,-0.895,-0.8909,-0.886,-0.8835,-0.8824,-0.8797,-0.8806,-0.8809,-0.8812,-0.8821,-0.8719,-0.8818,-0.8817,-0.8817,-0.8816,-0.8816,0,-0.9325,-0.9294,-0.9277,-0.9238,-0.9224,-0.9178,-0.9144,-0.9135,-0.9124,-0.909,-0.907,-0.905,-0.9029,-0.8977,-0.8952,-0.8953,-0.893,-0.8949,-0.8948,-0.8943,-0.8847,-0.8844,-0.8968,-0.8968,-0.8968,-0.8968,-0.8968,-0.8968,-0.9384,-0.9386,-0.9353,-0.9341,-0.9309,-0.9295,-0.928,-0.9256,-0.9229,-0.9209,-0.9191,-0.9158,-0.9117,-0.9088,-0.9068,-0.9053,-0.9047,-0.9074,-0.9052,-0.8964,-0.8949,-0.8935,-0.8932,-0.9073,-0.9073,-0.9149,-0.915,-0.915]},{"header":{"parameterUnit":"m.s-1","parameterCategory":1,"la1":30.2991,"la2":30.254,"lo1":-89.0895,"lo2":-89.0444,"dy":0.0017,"dx":0.0017,"nx":28,"ny":28,"refTime":"2024-07-25T09:00:00:Z","depth":0,"parameterNumber":3,"parameterNumberName":"V-component_of_WINDS"},"data":[0,0,0,0,0,0,0,0,0,0,0,0,0,0,0,0,0,0,0,0,0,0,0,0,0,0,0,0,0,0,0,0,0,0,0,0,0,0,0,0,0,0,0,0,0,0,0,0,0,0,0,0,0,0,0,0,0,0,2.8694,2.8694,0,2.8674,2.8674,2.8674,2.8717,2.8718,2.8719,2.8721,2.8694,2.8692,2.869,0,0,0,0,0,0,0,0,0,0,0,0,0,2.8763,2.8761,2.8694,2.8694,2.8693,2.8674,2.8674,2.8674,2.8716,2.8718,2.872,2.8721,2.8694,2.8692,2.869,0,0,0,0,0,0,0,0,0,0,0,0,0,2.8737,2.8761,2.8694,2.8713,2.8714,2.8674,2.8674,2.8674,2.8716,2.8718,2.872,2.8722,2.8695,2.8692,2.8689,2.8628,0,0,2.868,2.8679,0,0,0,0,0,0,0,0,2.8738,2.8734,2.871,2.8711,2.8713,2.87,2.8688,2.8658,2.8715,2.8715,2.8721,2.8723,2.8694,2.8691,2.8682,2.8627,2.8626,2.868,2.8678,2.8677,2.8676,0,0,0,0,0,0,0,2.874,2.8735,2.8686,2.871,2.8711,2.872,2.8719,2.8683,2.8692,2.8715,2.8718,2.8716,2.8695,2.8685,2.8682,2.8625,2.868,2.8677,2.8675,2.8674,2.8518,2.8516,0,0,0,0,0,0,2.874,2.8736,2.8687,2.8685,2.8731,2.8717,2.8716,2.8702,2.8693,2.8694,2.8714,2.8718,2.8689,2.8686,2.8681,2.8608,2.8677,2.8674,2.8672,2.852,2.8517,2.8515,0,0,0,0,0,0,2.8742,2.8735,2.8687,2.8712,2.8706,2.8714,2.8698,2.87,2.8691,2.8692,2.8694,2.8703,2.8691,2.8686,2.8641,2.8608,2.8672,2.867,2.8523,2.8519,2.8516,2.8462,0,0,0,0,0,0,2.8743,2.8736,2.8714,2.8711,2.8705,2.8649,2.8696,2.8699,2.8686,2.8691,2.8682,2.8682,2.8692,2.8646,2.8638,2.8605,2.8667,2.8526,2.8521,2.8517,2.8467,2.8457,2.8449,0,0,0,0,0,2.8746,2.8698,2.8713,2.8706,2.8678,2.8647,2.8644,2.8658,2.8684,2.8661,2.8662,2.8683,2.8613,2.8641,2.8633,2.8598,2.8528,2.8523,2.8517,2.8471,2.8459,2.8449,0,0,0,0,0,0,2.8695,2.8698,2.8714,2.8665,2.8656,2.8655,2.8626,2.8645,2.8626,2.8631,2.8648,2.8645,2.8597,2.8594,2.8624,2.8538,2.8575,2.8568,2.8542,2.8531,2.8522,2.8523,2.8665,0,0,0,0,0,2.8678,2.8655,2.8659,2.8614,2.8609,2.8619,2.8606,2.8618,2.8608,2.8604,2.8601,2.8589,2.8565,2.8548,2.8525,2.8467,2.8465,2.8439,2.843,2.8423,2.8416,2.8383,2.8372,2.8498,2.8498,2.8498,0,0,2.8643,2.8642,2.8626,2.8604,2.8599,2.8572,2.8615,2.8585,2.8565,2.8598,2.8557,2.8555,2.8542,2.849,2.8467,2.8486,2.8381,2.8416,2.8411,2.8407,2.8377,2.8365,2.8354,2.8494,2.8495,2.8495,0,0,2.8564,2.8562,2.8525,2.8519,2.8511,2.8517,2.8508,2.8505,2.8505,2.8465,2.8489,2.8464,2.8422,2.8412,2.8401,2.832,2.8337,2.8312,2.8264,2.8232,2.8222,2.8213,2.8182,2.8171,2.8305,2.8305,2.8305,0,2.852,2.8484,2.8503,2.8472,2.8461,2.8492,2.8453,2.8446,2.843,2.842,2.8442,2.839,2.8383,2.8329,2.8309,2.83,2.8289,2.8312,2.8223,2.8214,2.8206,2.8177,2.8165,2.8302,2.8302,2.8302,2.8303,0,2.8429,2.8403,2.8374,2.836,2.8346,2.8311,2.8323,2.8306,2.8319,2.8323,2.828,2.8274,2.825,2.8239,2.8251,2.8186,2.8197,2.822,2.8257,2.819,2.8163,2.8152,2.8297,2.8298,2.8299,2.83,0,0,2.8316,2.8315,2.8303,2.8297,2.8291,2.827,2.8235,2.8215,2.8199,2.8187,2.8157,2.8121,2.8143,2.8131,2.8142,2.8114,2.8048,2.814,2.814,2.8122,2.7974,2.7955,2.7942,2.8061,2.8059,2.8057,2.7974,0,2.8238,2.8181,2.8198,2.814,2.8115,2.8145,2.8115,2.8107,2.8109,2.8087,2.8089,2.8063,2.8094,2.8087,2.8061,2.8061,2.8018,2.8068,2.803,2.8029,2.8031,2.7928,2.7908,2.783,2.7964,2.7962,2.7961,0,2.8138,2.8124,2.8064,2.8062,2.8052,2.8025,2.8007,2.7986,2.7977,2.7981,2.7967,2.7984,2.7948,2.7987,2.7937,2.797,2.7956,2.7954,2.7951,2.7946,2.7989,2.7918,2.7806,2.7793,2.7945,2.7946,2.7947,0,2.8059,2.8026,2.7985,2.7979,2.7976,2.7956,2.7953,2.7946,2.7933,2.7916,2.7907,2.7886,2.7874,2.7857,2.7866,2.7894,2.7813,2.7853,2.7813,2.7813,2.7793,2.7794,2.7674,2.7787,2.7787,2.7788,2.7788,0,2.7968,2.793,2.795,2.7925,2.7882,2.7901,2.7858,2.7859,2.7852,2.7826,2.7851,2.7825,2.7841,2.7816,2.7824,2.778,2.7774,2.7774,2.7776,2.7771,2.7771,2.776,2.7765,2.7785,2.7785,2.7786,2.7786,0,2.7872,2.7885,2.7842,2.7844,2.7843,2.7811,2.7811,2.7787,2.7792,2.7759,2.7752,2.7759,2.7731,2.774,2.771,2.7714,2.7658,2.7668,2.7662,2.7663,2.7622,2.7625,2.749,2.7473,2.7599,2.7598,2.7597,0,2.7812,2.7784,2.7783,2.7768,2.7764,2.774,2.7727,2.7745,2.7729,2.7717,2.7693,2.7668,2.7649,2.7603,2.7604,2.758,2.7588,2.7543,2.7585,2.758,2.7585,2.7586,2.7583,2.7534,2.7532,2.7531,2.753,0,2.7704,2.7712,2.7693,2.7676,2.766,2.7647,2.7636,2.7622,2.7639,2.762,2.7593,2.7579,2.7548,2.7522,2.7501,2.7496,2.7514,2.7517,2.7506,2.75,2.7496,2.7496,2.7637,2.752,2.7521,2.7521,2.7522,2.7522,2.7623,2.7599,2.7595,2.7572,2.7567,2.7556,2.7533,2.7536,2.7515,2.7493,2.7504,2.7473,2.7463,2.7437,2.7429,2.7403,2.742,2.7405,2.7401,2.7396,2.739,2.7503,2.7399,2.74,2.74,2.74,2.74,0,2.7515,2.7514,2.7494,2.7478,2.7461,2.7483,2.7472,2.7455,2.7427,2.7418,2.7399,2.7368,2.7343,2.7342,2.7319,2.7298,2.7305,2.729,2.7291,2.7289,2.7377,2.7388,2.7285,2.7285,2.7285,2.7285,2.7285,2.7285,2.7456,2.7416,2.7424,2.738,2.7379,2.735,2.7342,2.7331,2.7324,2.7288,2.7268,2.7269,2.7263,2.7239,2.7216,2.7217,2.7206,2.7187,2.719,2.7272,2.7283,2.7294,2.7305,2.7185,2.7185,2.7105,2.7104,2.7104]}]]